Location: Dillon
(41.1766°N, 107.0923°W)
Time: 09:40:55
(UTC+00:00)

LO-87 - Visible Passes

Search period start: 29 June 2022 00:00
Search period end: 09 July 2022 00:00
Orbit: 454 x 468 km, 97.4° (Epoch: 28 June)

Date Brightness Start Highest point End Pass type
(mag) Time Alt. Az. Time Alt. Az. Time Alt. Az.
29 Jun ? 05:43:22 14° ENE 05:43:22 14° ENE 05:44:59 10° NE visible
29 Jun ? 07:17:14 23° NW 07:17:14 23° NW 07:18:57 10° NNW visible
30 Jun ? 06:45:21 39° N 06:45:21 39° N 06:47:39 10° NNW visible
01 Jul ? 06:13:28 28° NE 06:13:28 28° NE 06:15:48 10° N visible
01 Jul ? 07:47:20 11° WNW 07:47:20 11° WNW 07:47:36 10° WNW visible
02 Jul ? 05:41:33 13° ENE 05:41:33 13° ENE 05:43:03 10° NE visible
02 Jul ? 07:15:25 24° NW 07:15:25 24° NW 07:17:10 10° NNW visible
03 Jul ? 06:43:30 39° N 06:43:30 39° N 06:45:47 10° N visible
04 Jul ? 06:11:33 26° NE 06:11:33 26° NE 06:13:49 10° N visible
04 Jul ? 07:45:25 11° WNW 07:45:25 11° WNW 07:45:49 10° WNW visible
05 Jul ? 05:39:36 12° ENE 05:39:36 12° ENE 05:40:54 10° NE visible
05 Jul ? 07:13:28 24° NW 07:13:28 24° NW 07:15:13 10° NNW visible
06 Jul ? 06:41:29 37° N 06:41:29 37° N 06:43:44 10° N visible
07 Jul ? 06:09:30 25° NE 06:09:30 25° NE 06:11:40 10° NNE visible
07 Jul ? 07:43:22 12° WNW 07:43:22 12° WNW 07:43:51 10° NW visible
08 Jul ? 05:37:29 12° ENE 05:37:29 12° ENE 05:38:33 10° NE visible
08 Jul ? 07:11:21 25° NW 07:11:21 25° NW 07:13:05 10° NNW visible
